• In Netherlands
  • List of Countries
  • For 7 days
  • Water Temperature
  • Satellite Maps
  • Weather Map
  • Weather Widgets
  • user-avatar
    Login

    Hourly Weather Kaprun

    Today, 17 August, Thursday

    Time Temperature Precipitation Wind Pressure Humidity
    00:00 +8°C° 0 mm 1 mps 602 mmHg 91%
    01:00 +8°C° 0 mm 1 mps 601 mmHg 90%
    02:00 +7°C° 0 mm 1 mps 601 mmHg 89%
    03:00 +7°C° 0 mm 1 mps 601 mmHg 88%
    04:00 +7°C° 0 mm 1 mps 601 mmHg 88%
    05:00 +8°C° 0 mm 1 mps 602 mmHg 85%
    06:00 +9°C° 0 mm 1 mps 602 mmHg 82%
    07:00 +11°C° 0 mm 1 mps 603 mmHg 79%
    08:00 +13°C° 0 mm 1 mps 604 mmHg 68%
    09:00 +15°C° 0 mm 0 mps 605 mmHg 58%
    10:00 +18°C° 0 mm 0 mps 606 mmHg 48%
    11:00 +18°C° 0 mm 0 mps 606 mmHg 46%
    12:00 +21°C° 0 mm 1 mps 606 mmHg 44%
    13:00 +21°C° 0 mm 1 mps 606 mmHg 42%
    14:00 +21°C° 0.1 mm 1 mps 606 mmHg 47%
    15:00 +20°C° 0.1 mm 1 mps 605 mmHg 52%
    16:00 +19°C° 0.1 mm 1 mps 605 mmHg 57%
    17:00 +16°C° 0.2 mm 1 mps 604 mmHg 67%
    18:00 +14°C° 0.2 mm 1 mps 603 mmHg 76%
    19:00 +12°C° 0.2 mm 0 mps 603 mmHg 86%
    20:00 +11°C° 0 mm 0 mps 602 mmHg 88%
    21:00 +11°C° 0 mm 1 mps 602 mmHg 89%
    22:00 +10°C° 0 mm 1 mps 602 mmHg 91%
    23:00 +9°C° 0 mm 1 mps 602 mmHg 91%

    Tomorrow, 18 August, Friday

    Time Temperature Precipitation Wind Pressure Humidity
    00:00 +9°C° 0 mm 1 mps 602 mmHg 91%
    01:00 +9°C° 0 mm 1 mps 602 mmHg 90%
    02:00 +9°C° 0 mm 1 mps 602 mmHg 90%
    03:00 +9°C° 0 mm 1 mps 601 mmHg 90%
    04:00 +9°C° 0 mm 1 mps 601 mmHg 89%
    05:00 +10°C° 0 mm 1 mps 602 mmHg 87%
    06:00 +11°C° 0 mm 1 mps 602 mmHg 85%
    07:00 +12°C° 0 mm 1 mps 603 mmHg 82%
    08:00 +15°C° 0 mm 1 mps 603 mmHg 72%
    09:00 +18°C° 0 mm 1 mps 604 mmHg 62%
    10:00 +19°C° 0 mm 2 mps 605 mmHg 52%
    11:00 +20°C° 0 mm 2 mps 605 mmHg 50%
    12:00 +21°C° 0 mm 2 mps 605 mmHg 47%
    13:00 +23°C° 0 mm 2 mps 605 mmHg 44%
    14:00 +21°C° 0 mm 2 mps 605 mmHg 48%
    15:00 +20°C° 0 mm 2 mps 604 mmHg 52%
    16:00 +20°C° 0 mm 2 mps 603 mmHg 56%
    17:00 +18°C° 0.4 mm 2 mps 602 mmHg 65%
    18:00 +16°C° 0.4 mm 2 mps 602 mmHg 74%
    19:00 +14°C° 0.4 mm 2 mps 601 mmHg 83%
    20:00 +13°C° 0.3 mm 2 mps 600 mmHg 86%
    21:00 +12°C° 0.3 mm 2 mps 600 mmHg 89%
    22:00 +9°C° 0.3 mm 2 mps 599 mmHg 92%
    23:00 +9°C° 0.6 mm 2 mps 599 mmHg 93%

    Day after tomorrow, 19 August, Saturday

    Time Temperature Precipitation Wind Pressure Humidity
    00:00 +9°C° 0.6 mm 2 mps 599 mmHg 94%
    01:00 +8°C° 0.6 mm 2 mps 599 mmHg 95%
    02:00 +8°C° 1.4 mm 2 mps 600 mmHg 95%
    03:00 +8°C° 1.4 mm 2 mps 600 mmHg 96%
    04:00 +8°C° 1.4 mm 2 mps 600 mmHg 96%
    05:00 +7°C° 3.2 mm 2 mps 600 mmHg 96%
    06:00 +7°C° 3.2 mm 2 mps 600 mmHg 96%
    07:00 +6°C° 3.2 mm 2 mps 599 mmHg 96%
    08:00 +6°C° 2.5 mm 2 mps 600 mmHg 95%
    09:00 +6°C° 2.5 mm 2 mps 600 mmHg 94%
    10:00 +6°C° 2.5 mm 2 mps 600 mmHg 93%
    11:00 +7°C° 0.9 mm 2 mps 601 mmHg 91%
    12:00 +8°C° 0.9 mm 2 mps 601 mmHg 88%
    13:00 +8°C° 0.9 mm 2 mps 601 mmHg 85%
    14:00 +9°C° 0.2 mm 2 mps 602 mmHg 83%
    15:00 +9°C° 0.2 mm 2 mps 602 mmHg 81%
    16:00 +9°C° 0.2 mm 2 mps 602 mmHg 79%
    17:00 +8°C° 0.1 mm 2 mps 602 mmHg 84%
    18:00 +7°C° 0.1 mm 2 mps 602 mmHg 88%
    19:00 +7°C° 0.1 mm 2 mps 601 mmHg 93%
    20:00 +6°C° 0 mm 2 mps 602 mmHg 93%
    21:00 +6°C° 0 mm 2 mps 602 mmHg 94%
    22:00 +5°C° 0 mm 2 mps 602 mmHg 95%
    23:00 +5°C° 0 mm 2 mps 602 mmHg 95%

    20 August, Sunday

    Time Temperature Precipitation Wind Pressure Humidity
    00:00 +4°C° 0 mm 2 mps 602 mmHg 96%
    01:00 +4°C° 0 mm 2 mps 602 mmHg 96%
    02:00 +4°C° 0 mm 2 mps 602 mmHg 96%
    03:00 +4°C° 0 mm 2 mps 602 mmHg 96%
    04:00 +3°C° 0 mm 2 mps 602 mmHg 95%
    05:00 +4°C° 0 mm 2 mps 602 mmHg 93%
    06:00 +4°C° 0 mm 2 mps 602 mmHg 91%
    07:00 +5°C° 0 mm 2 mps 603 mmHg 89%
    08:00 +7°C° 0 mm 2 mps 604 mmHg 78%
    09:00 +8°C° 0 mm 2 mps 604 mmHg 68%
    10:00 +10°C° 0 mm 2 mps 605 mmHg 57%
    11:00 +12°C° 0 mm 2 mps 605 mmHg 52%
    12:00 +13°C° 0 mm 2 mps 606 mmHg 48%
    13:00 +14°C° 0 mm 2 mps 606 mmHg 43%
    14:00 +14°C° 0 mm 2 mps 606 mmHg 45%
    15:00 +13°C° 0 mm 2 mps 605 mmHg 48%
    16:00 +13°C° 0 mm 2 mps 605 mmHg 50%
    17:00 +10°C° 0 mm 2 mps 605 mmHg 61%
    18:00 +8°C° 0 mm 2 mps 604 mmHg 72%
    19:00 +7°C° 0 mm 1 mps 603 mmHg 83%
    20:00 +6°C° 0 mm 1 mps 603 mmHg 86%
    21:00 +5°C° 0 mm 1 mps 603 mmHg 90%
    22:00 +4°C° 0 mm 1 mps 603 mmHg 93%
    23:00 +4°C° 0 mm 1 mps 603 mmHg 91%

    21 August, Monday

    Time Temperature Precipitation Wind Pressure Humidity
    00:00 +4°C° 0 mm 1 mps 602 mmHg 89%
    01:00 +4°C° 0 mm 1 mps 602 mmHg 87%
    02:00 +4°C° 0 mm 1 mps 602 mmHg 83%
    03:00 +4°C° 0 mm 1 mps 602 mmHg 80%
    04:00 +4°C° 0 mm 1 mps 602 mmHg 76%
    05:00 +5°C° 0 mm 1 mps 602 mmHg 71%
    06:00 +7°C° 0 mm 1 mps 603 mmHg 65%
    07:00 +8°C° 0 mm 1 mps 604 mmHg 60%
    08:00 +11°C° 0 mm 1 mps 605 mmHg 52%
    09:00 +14°C° 0 mm 1 mps 606 mmHg 44%
    10:00 +16°C° 0 mm 1 mps 607 mmHg 37%
    11:00 +18°C° 0 mm 1 mps 607 mmHg 36%
    12:00 +19°C° 0 mm 1 mps 607 mmHg 35%
    13:00 +20°C° 0 mm 1 mps 607 mmHg 34%
    14:00 +20°C° 0 mm 1 mps 606 mmHg 36%
    15:00 +20°C° 0 mm 1 mps 606 mmHg 38%
    16:00 +19°C° 0 mm 1 mps 605 mmHg 41%
    17:00 +16°C° 0 mm 1 mps 604 mmHg 53%
    18:00 +13°C° 0 mm 1 mps 603 mmHg 66%
    19:00 +9°C° 0 mm 0 mps 601 mmHg 79%
    20:00 +9°C° 0 mm 1 mps 601 mmHg 80%
    21:00 +9°C° 0 mm 1 mps 601 mmHg 81%
    22:00 +8°C° 0 mm 1 mps 601 mmHg 82%
    23:00 +8°C° 0 mm 1 mps 601 mmHg 82%

    22 August, Tuesday

    Time Temperature Precipitation Wind Pressure Humidity
    00:00 +8°C° 0 mm 1 mps 600 mmHg 81%
    01:00 +8°C° 0 mm 1 mps 600 mmHg 81%
    02:00 +7°C° 0 mm 1 mps 600 mmHg 81%
    03:00 +7°C° 0 mm 1 mps 599 mmHg 80%
    04:00 +7°C° 0 mm 1 mps 599 mmHg 80%
    05:00 +9°C° 0 mm 1 mps 600 mmHg 75%
    06:00 +10°C° 0 mm 1 mps 600 mmHg 71%
    07:00 +12°C° 0 mm 1 mps 601 mmHg 67%
    08:00 +14°C° 0 mm 1 mps 602 mmHg 59%
    09:00 +16°C° 0 mm 1 mps 603 mmHg 51%
    10:00 +20°C° 0 mm 1 mps 603 mmHg 43%
    11:00 +20°C° 0 mm 1 mps 603 mmHg 42%
    12:00 +21°C° 0 mm 1 mps 603 mmHg 41%
    13:00 +21°C° 0 mm 1 mps 603 mmHg 41%
    14:00 +20°C° 0.2 mm 1 mps 603 mmHg 49%
    15:00 +18°C° 0.2 mm 2 mps 602 mmHg 58%
    16:00 +17°C° 0.2 mm 2 mps 601 mmHg 67%
    17:00 +15°C° 1.3 mm 1 mps 601 mmHg 76%
    18:00 +13°C° 1.3 mm 1 mps 600 mmHg 85%
    19:00 +11°C° 1.3 mm 1 mps 600 mmHg 94%
    20:00 +11°C° 2.2 mm 1 mps 600 mmHg 95%
    21:00 +11°C° 2.2 mm 1 mps 600 mmHg 96%
    22:00 +10°C° 2.2 mm 1 mps 600 mmHg 97%
    23:00 +10°C° 1.6 mm 1 mps 600 mmHg 97%
    Show more